This is the latest recevied weather packets stored in our database for station/object N9XRG. If no packets are shown the sender has not sent any weather packets the latest 10 day(s).
| Time | Temp. | Humidity | Pressure | Rain* | Wind** | Luminosity | Snow |
|---|---|---|---|---|---|---|---|
| 1777599112 | 11.11° C | 68% | 1014.4 hPa | 0 mm | - | 0 W/m² | - |
| 1777598811 | 10.56° C | 69% | 1014.2 hPa | 0 mm | - | 0 W/m² | - |
| 1777598510 | 10.56° C | 71% | 1014.2 hPa | 0 mm | - | 0 W/m² | - |
| 1777598210 | 10.56° C | 70% | 1014 hPa | 0 mm | - | 0 W/m² | - |
| 1777597908 | 10.56° C | 75% | 1014.1 hPa | 0 mm | - | 0 W/m² | - |
| 1777597603 | 10.56° C | 74% | 1014.1 hPa | 0 mm | - | 0 W/m² | - |
| 1777597299 | 11.11° C | 71% | 1014 hPa | 0 mm | - | 0 W/m² | - |
| 1777596995 | 11.11° C | 69% | 1013.9 hPa | 0 mm | - | 0 W/m² | - |
| 1777596692 | 11.67° C | 72% | 1014.1 hPa | 0 mm | - | 0 W/m² | - |
| 1777596389 | 11.67° C | 70% | 1013.8 hPa | 0 mm | - | 0 W/m² | - |
| 1777596086 | 11.67° C | 62% | 1013.7 hPa | 0 mm | - | 0 W/m² | - |
| 1777595781 | 11.67° C | 59% | 1013.8 hPa | 0 mm | - | 1 W/m² | - |
| 1777595476 | 12.22° C | 61% | 1013.6 hPa | 0 mm | - | 2 W/m² | - |
| 1777595173 | 12.22° C | 58% | 1013.6 hPa | 0 mm | - | 2 W/m² | - |
| 1777594869 | 12.22° C | 60% | 1013.8 hPa | 0 mm | - | 3 W/m² | - |
| 1777594566 | 12.22° C | 57% | 1013.6 hPa | 0 mm | - | 6 W/m² | - |
| 1777594262 | 12.22° C | 57% | 1013.6 hPa | 0 mm | - | 11 W/m² | - |
| 1777593958 | 12.22° C | 57% | 1013.8 hPa | 0 mm | - | 12 W/m² | - |
| 1777593654 | 12.78° C | 55% | 1013.7 hPa | 0 mm | - | 17 W/m² | - |
| 1777593350 | 12.78° C | 55% | 1013.7 hPa | 0 mm | - | 21 W/m² | - |
| 1777593050 | 12.78° C | 53% | 1013.4 hPa | 0 mm | - | 21 W/m² | - |
| 1777592749 | 12.78° C | 53% | 1013.7 hPa | 0 mm | - | 28 W/m² | - |
| 1777592445 | 12.78° C | 55% | 1013.8 hPa | 0 mm | - | 49 W/m² | - |
| 1777592140 | 12.78° C | 53% | 1013.7 hPa | 0 mm | - | 60 W/m² | - |
| 1777591838 | 12.78° C | 54% | 1013.9 hPa | 0 mm | - | 33 W/m² | - |
* Rain latest hour (hover to see other rain measurements)
** Current wind speed in m/s (hover to see current wind gust speed)